Location: Ford County Road and Bridge Department
(37.7686°N, 99.9762°W)
Time: 13:05:19
(UTC+00:00)

Cosmos 2297 Rocket - Pass Details

Date: 18 January 2020
Orbit: 838 x 845 km, 71.0° (Epoch: 25 February)

Event Time Altitude Azimuth Distance (km) Brightness Sun altitude
Rises 00:25:16 0° 160° (SSE) 3,375 5.3 -7.9°
Reaches altitude 10° 00:28:23 10° 143° (SE) 2,447 4.4 -8.4°
Maximum altitude 00:32:10 19° 100° (E) 1,905 3.5 -9.1°
Enters shadow 00:35:29 12° 61° (ENE) 2,339 3.9 -9.8°
